SCP
0 0 -0 0 -0 -0 -0 0 0 -0 0 0 0 0 0 0 0 0 0 0 0 0 0 1 1 1 1 1 1 0 1 0 0 0 0 0 0 0 0 0 0 0 0 0
0 0 -0 -0 0 -0 -0 -0 0 0 0 0 0 0 0 1 1 1 1 1 0 1 1 1 2 2 2 1 1 0 0 0 0 0 0 0 0 0 0 0 0 0 0 0
0 0 0 0 0 0 0 0 0 0 1 0 0 0 0 1 1 1 0 1 1 0 1 1 1 2 2 1 1 0 0 0 0 0 0 0 0 0 0 0 0 0 0 0
0 0 0 0 -0 -0 -0 -0 0 0 1 0 0 0 0 0 0 1 1 1 1 0 1 2 1 1 1 1 0 0 0 0 0 0 0 0 0 0 0 0 0 0 0 0
0 0 0 0 0 -0 0 0 1 1 0 0 0 0 0 0 0 0 0 0 0 1 1 1 0 0 0 0 -0 0 1 0 0 0 0 0 0 0 0 0 0 0 0 0
0 0 0 -0 -0 -0 0 1 0 0 0 0 0 0 0 1 0 0 1 1 0 1 0 1 0 0 0 0 0 0 0 0 0 0 0 0 0 0 0 0 0 0 0 0
0 0 0 0 0 -0 0 1 1 1 0 0 0 0 0 0 0 1 0 0 0 0 0 0 0 0 0 0 0 0 0 0 0 0 0 0 0 0 0 0 0 0 0 0
0 0 0 0 0 1 1 1 0 0 0 0 0 0 0 0 0 1 0 1 1 1 0 0 0 0 0 0 0 0 0 0 0 0 0 0 0 0 0 0 0 0 0 0
0 0 -0 -0 -0 0 1 0 0 0 1 0 0 0 0 0 1 1 1 1 1 1 0 0 0 0 0 0 0 0 0 0 0 0 0 0 0 0 0 0 0 0 0 0
0 0 -0 -0 0 1 1 0 0 1 1 0 1 0 0 1 1 1 1 0 0 0 1 0 0 0 0 0 0 0 0 0 0 0 0 0 0 0 0 0 0 0 0 0
0 0 1 1 1 1 1 1 2 1 1 1 1 1 1 1 1 0 0 1 0 0 0 0 0 0 0 0 0 0 0 0 0 0 0 0 0 0 0 0 0 0 0 0
0 -0 1 1 0 1 1 1 1 1 1 1 1 1 1 1 1 0 0 1 0 0 0 0 0 0 0 0 0 0 0 0 0 0 0 0 0 0 0 0 0 0 0 0
0 0 0 0 0 0 1 1 1 1 1 1 1 1 0 0 0 0 0 0 0 0 0 0 0 0 0 0 0 0 0 0 0 0 0 0 0 0 0 0 0 0 0 0
0 0 0 0 1 1 1 1 0 1 1 1 1 1 1 1 1 1 0 0 0 0 0 0 0 0 0 0 0 0 0 0 0 0 0 0 0 0 0 0 0 0 0 0
0 0 0 0 1 0 0 0 0 0 1 1 1 1 0 0 0 0 0 0 0 0 0 0 0 0 0 0 0 0 0 0 0 0 0 0 0 0 0 0 0 0 0 0
0 0 0 0 0 0 0 0 1 0 0 0 1 0 0 0 0 0 0 0 0 0 0 0 0 0 0 0 0 0 0 0 0 0 0 0 0 0 0 0 0 0 0 0
0 0 0 0 1 0 0 0 0 1 0 0 0 0 0 1 1 1 0 0 0 0 0 0 0 0 0 0 0 0 0 0 0 0 0 0 0 0 0 0 0 0 0 0
0 0 1 0 0 1 1 1 1 1 0 0 0 0 0 0 0 0 0 0 0 0 0 0 0 0 0 0 0 0 0 0 0 0 0 0 0 0 0 0 0 0 0 0
0 0 0 1 0 1 1 1 0 0 0 0 0 0 0 0 0 0 0 0 0 0 0 0 0 0 0 0 0 0 0 0 0 0 0 0 0 0 0 0 0 0 0 0
0 0 1 1 1 1 1 0 0 0 0 0 0 0 0 0 0 0 0 0 0 0 0 0 0 0 0 0 0 0 0 0 0 0 0 0 0 0 0 0 0 0 0 0
0 0 1 1 1 0 0 0 0 0 0 0 0 0 0 0 0 0 0 0 0 0 0 0 0 0 0 0 0 0 0 0 0 0 -0 0 0 0 0 0 0 0 0 0
1 1 1 1 0 0 0 0 0 0 0 0 0 0 0 -0 0 0 0 0 0 0 0 0 0 0 0 0 0 0 0 0 0 0 0 0 0 0 0 0 0 0 0 0
0 0 0 0 0 0 0 0 0 0 0 0 -0 -0 0 0 0 0 0 0 0 0 0 0 0 0 0 0 0 0 0 0 0 0 0 0 0 0 -0 -0 -0 0 0 0
0 0 0 0 0 0 0 0 0 0 0 0 0 0 0 0 0 0 0 0 0 0 0 0 0 0 0 0 0 0 0 0 0 0 0 0 -0 -0 -0 0 0 0 0 0
0 0 0 0 0 0 0 0 0 0 0 0 0 0 0 0 0 0 0 0 0 0 0 0 0 0 0 0 0 0 0 0 0 0 0 -0 -0 -0 0 0 0 0 0 0
0 0 0 0 0 0 0 0 0 0 0 0 0 0 0 0 0 0 0 0 0 0 0 0 0 0 0 0 0 0 0 0 0 0 -0 -0 0 0 0 0 0 0 0 0
0 0 0 0 0 0 0 0 0 0 0 0 0 0 0 0 0 0 0 0 0 0 0 0 0 0 0 0 0 0 0 0 0 0 -0 -0 0 0 0 0 0 0 0 0
Wind_Speed_500mb
19 18 14 16 17 27 25 10 15 13 17 7 13 15 35 48 28 14 12 22 12 23 27 29 26 24 19 22 18 16 8 10 7 6 6 9 11 11 23 22 25 23 33 40
11 15 15 12 26 26 39 31 13 16 16 12 44 47 44 42 40 36 38 40 38 21 30 29 30 29 28 24 23 17 20 18 17 17 12 11 18 17 23 26 29 32 28 28
9 9 8 7 3 4 11 8 11 17 6 27 26 41 34 38 34 35 39 29 31 34 46 27 22 22 35 28 28 18 21 15 19 17 13 15 19 23 27 27 35 32 22 28
7 4 1 9 17 1 11 18 21 19 20 31 36 31 41 36 36 39 44 45 46 38 34 17 10 20 21 21 21 9 13 12 4 6 8 13 17 26 30 36 32 25 21 20
3 3 2 17 19 8 19 11 15 14 24 36 31 26 35 46 36 42 46 50 48 32 26 10 28 13 11 9 38 37 36 16 19 24 24 22 26 26 26 29 26 22 14 19
5 4 7 16 24 46 43 1 19 29 24 24 22 7 10 31 40 50 28 36 43 14 33 32 36 27 40 38 24 29 39 7 21 19 21 25 26 28 31 27 24 16 22 26
10 9 3 5 23 40 2 9 20 24 18 21 8 18 32 40 40 38 39 40 36 50 23 15 8 4 14 8 6 23 23 5 8 19 28 30 25 24 24 21 18 20 28 18
5 12 7 7 15 7 12 18 20 12 11 17 20 24 31 36 38 41 40 34 36 37 19 16 10 3 4 7 10 19 14 10 19 24 29 33 26 29 28 20 19 17 19 28
9 11 19 26 18 30 24 22 7 5 11 13 20 29 34 37 35 32 36 31 29 25 29 8 2 3 8 8 13 19 10 12 22 22 34 31 29 33 25 19 23 28 27 30
11 14 15 32 18 31 17 9 4 12 12 16 23 32 34 30 29 31 34 37 36 34 4 27 21 20 19 16 20 17 22 34 25 29 34 35 29 32 31 31 31 36 32 42
9 38 16 31 27 19 11 8 13 10 16 15 15 23 30 29 32 36 41 30 20 15 20 15 21 23 7 13 19 23 32 31 28 30 34 28 32 37 34 31 36 42 45 47
8 35 15 12 6 2 11 10 5 10 16 11 17 19 22 25 30 32 24 20 25 29 29 30 30 19 15 24 31 33 33 39 39 39 32 30 37 42 39 43 43 47 50 52
15 19 10 8 14 15 22 11 10 16 13 19 20 18 19 20 21 25 29 33 35 29 31 31 33 26 28 30 31 38 44 46 40 33 28 33 35 42 47 47 52 53 57 57
15 14 8 5 12 18 6 13 19 19 20 17 12 14 13 16 23 22 26 34 26 23 29 31 29 24 25 33 39 46 41 33 29 25 30 35 39 45 43 50 57 64 65 61
6 6 11 11 7 8 21 17 16 15 12 13 14 13 18 27 18 21 28 25 32 31 39 24 22 22 32 40 43 34 35 34 31 30 35 40 42 35 32 39 47 42 38 66
13 13 13 25 27 21 23 20 16 11 6 7 6 16 23 18 22 27 24 27 34 36 36 25 22 29 37 34 37 42 44 40 35 35 42 50 47 51 47 43 44 49 61 65
18 18 29 28 33 31 24 21 15 8 4 6 10 14 16 15 18 21 23 22 29 32 32 33 32 28 24 30 32 38 46 49 46 44 46 52 45 35 47 61 71 72 69 71
34 24 18 21 33 34 29 23 15 7 1 3 8 13 17 21 25 33 33 37 31 32 30 28 27 31 29 35 39 38 39 44 46 47 52 52 57 62 63 66 70 71 74 54
45 33 30 37 37 35 29 23 14 5 4 5 7 13 16 19 24 24 25 31 28 27 28 27 28 32 35 33 33 40 46 50 52 57 56 51 53 52 57 59 64 64 49 61
33 36 37 43 41 36 30 22 15 9 2 4 6 10 16 22 27 26 24 18 19 21 23 30 29 32 28 33 40 45 43 42 46 50 47 42 52 55 56 51 52 53 56 54
38 37 51 50 45 40 26 19 16 10 4 2 5 9 20 19 24 27 22 22 28 25 23 26 29 35 38 39 37 35 32 45 52 46 43 41 44 44 46 48 51 51 47 47
38 36 38 51 52 23 21 16 14 9 5 2 4 9 14 21 28 25 25 27 30 25 23 26 29 30 28 28 34 33 38 44 43 43 45 47 41 43 44 47 52 45 42 42
62 54 43 15 13 42 26 17 11 10 4 4 4 12 13 16 21 28 28 22 23 22 26 26 30 34 45 33 28 33 47 33 32 32 33 31 32 44 53 51 49 46 44 42
37 10 21 42 37 27 26 15 6 13 16 5 7 4 6 18 29 23 20 21 24 27 36 19 29 41 30 30 35 45 28 29 20 28 33 40 53 62 60 53 48 45 42 38
33 46 53 44 34 27 12 8 4 7 5 8 7 9 13 29 32 14 21 29 27 31 31 27 45 47 21 44 26 20 26 23 26 34 42 57 60 55 47 43 40 38 49 47
62 51 43 34 25 26 20 24 7 9 9 4 17 23 26 36 23 18 17 16 18 25 26 32 32 34 37 26 23 24 29 24 31 43 54 61 55 46 37 37 33 48 48 39
46 38 34 27 23 18 13 12 10 5 11 20 24 23 23 19 19 25 25 28 30 34 39 41 39 39 32 21 18 18 29 32 40 43 60 60 52 40 29 31 37 45 40 39
Wind_Direction_500mb
325 38 44 23 337 47 34 345 90 186 85 66 65 75 30 17 31 103 23 348 271 230 208 213 214 224 225 222 258 241 271 247 234 226 308 294 280 256 298 284 290 287 279 286
323 7 34 57 35 25 61 324 39 73 59 68 48 50 53 41 32 24 12 2 1 359 272 233 207 219 219 221 217 239 238 250 262 265 261 239 241 276 282 282 285 281 277 281
277 26 336 17 246 313 304 352 53 70 69 46 34 24 49 33 17 4 358 1 355 349 339 236 221 225 216 223 227 239 239 244 260 232 260 269 241 277 282 282 294 297 278 267
258 53 319 298 310 39 10 330 49 47 38 46 31 25 46 24 5 7 4 348 337 344 334 243 218 261 251 216 247 269 227 277 155 239 286 275 277 280 282 295 302 304 287 272
188 82 270 352 327 8 22 355 31 47 40 35 9 358 356 1 359 352 338 342 347 341 69 67 317 216 315 324 333 323 228 237 256 297 268 272 278 282 290 299 296 305 298 290
317 254 194 216 231 235 197 293 357 66 48 21 20 30 284 -0 352 345 353 350 353 5 310 332 257 258 284 317 329 60 54 60 296 285 317 309 292 291 299 299 290 278 276 293
235 214 103 141 299 299 126 215 79 64 49 15 12 354 360 355 350 347 338 355 349 352 339 309 223 307 298 201 234 341 284 16 306 336 331 322 296 300 313 299 285 286 288 297
28 48 274 251 29 98 162 103 85 55 54 10 1 349 351 342 343 353 356 5 4 348 21 53 76 283 194 182 29 32 10 260 297 323 324 319 297 312 322 300 284 315 303 308
143 207 218 208 161 140 139 117 98 123 62 11 9 356 347 350 359 2 2 17 39 59 1 311 331 310 305 16 18 329 289 309 342 334 313 306 304 308 312 320 307 303 298 307
53 13 205 203 204 128 125 113 124 93 62 15 12 9 2 9 11 9 7 4 356 1 321 311 315 332 354 7 342 360 357 332 323 310 308 316 311 318 309 293 287 293 286 286
22 324 37 99 112 119 110 50 103 76 19 351 3 13 8 3 357 354 352 356 12 348 326 313 332 338 326 323 327 322 320 316 316 309 310 317 319 311 306 312 298 293 298 296
196 209 122 107 91 161 156 119 55 40 16 60 17 12 4 8 358 353 345 351 341 335 335 333 326 323 318 322 320 320 324 322 318 313 307 315 317 316 307 304 301 300 300 297
152 148 150 242 259 260 144 96 103 55 75 36 16 14 348 347 352 347 334 338 342 341 334 331 329 319 318 321 332 327 319 317 315 316 325 311 310 309 308 306 308 306 305 299
168 165 139 8 129 113 89 127 107 78 38 21 24 16 354 352 347 335 324 335 338 330 319 313 314 318 324 325 317 314 314 315 325 327 326 320 317 307 307 308 312 311 310 305
251 287 253 182 220 278 150 141 106 68 46 40 9 351 334 340 343 314 313 325 341 338 340 331 330 321 305 309 315 324 328 323 326 321 313 308 311 321 316 318 313 317 312 312
303 276 230 209 219 180 159 131 112 86 5 18 3 341 340 335 312 317 306 311 334 332 331 314 292 286 302 308 325 328 327 320 313 308 308 309 307 310 302 301 306 310 310 315
258 242 277 292 242 162 142 126 117 137 161 351 348 350 357 3 345 4 7 351 333 329 322 301 317 319 323 333 311 306 307 314 314 308 306 314 320 307 308 314 316 315 312 318
233 221 236 203 146 136 133 134 141 161 97 258 320 326 335 340 342 336 339 340 321 320 322 310 315 317 312 321 325 325 324 321 316 309 309 302 308 308 306 319 324 321 316 319
221 219 227 188 166 152 148 147 147 135 203 313 344 347 343 337 335 337 320 351 349 353 355 338 328 327 326 327 329 326 323 322 324 318 315 311 316 318 325 328 331 326 320 321
215 218 219 177 160 161 154 157 147 171 198 337 333 343 343 334 326 336 332 331 346 334 334 348 350 344 333 324 331 331 335 331 324 326 332 339 331 333 335 336 344 333 326 329
209 229 186 177 161 138 151 151 156 180 181 256 348 6 349 351 349 347 357 334 358 353 339 350 329 325 334 333 339 343 343 340 348 351 12 352 349 346 344 350 349 343 332 332
214 169 142 140 125 124 131 150 165 157 167 246 269 321 12 23 356 341 347 337 346 344 343 348 340 340 342 343 334 341 336 339 355 355 356 351 344 348 354 349 345 342 337 340
154 160 144 242 166 174 158 157 158 182 219 40 291 284 332 2 4 350 351 1 13 16 8 340 329 342 344 335 332 332 340 351 358 9 13 360 352 348 348 350 348 350 351 348
124 114 173 174 188 161 162 155 179 228 259 308 44 120 24 13 355 336 325 341 351 351 348 352 344 346 344 347 341 331 349 353 8 360 352 345 348 346 346 349 351 355 2 6
179 169 171 159 156 164 166 163 82 331 58 97 4 336 4 5 350 324 333 335 335 337 337 342 345 339 313 338 341 357 327 333 339 344 349 348 350 350 354 354 359 7 359 355
154 150 147 146 121 143 128 133 118 7 326 352 336 326 330 338 340 350 0 351 342 342 337 337 339 335 338 332 343 326 311 316 338 343 347 348 345 345 355 352 341 344 346 343
126 137 123 112 133 131 114 63 39 32 355 338 312 306 341 332 338 350 356 352 344 333 323 331 322 312 308 304 334 324 318 326 329 340 351 346 338 337 344 333 330 330 333 330
Wind_Speed_850mb
19 18 14 16 17 27 25 10 15 13 17 7 13 15 35 48 28 14 12 22 12 23 27 29 26 24 19 22 18 16 8 10 7 6 6 9 11 11 23 22 25 23 33 40
11 15 15 12 26 26 39 31 13 16 16 12 44 47 44 42 40 36 38 40 38 21 30 29 30 29 28 24 23 17 20 18 17 17 12 11 18 17 23 26 29 32 28 28
9 9 8 7 3 4 11 8 11 17 6 27 26 41 34 38 34 35 39 29 31 34 46 27 22 22 35 28 28 18 21 15 19 17 13 15 19 23 27 27 35 32 22 28
7 4 1 9 17 1 11 18 21 19 20 31 36 31 41 36 36 39 44 45 46 38 34 17 10 20 21 21 21 9 13 12 4 6 8 13 17 26 30 36 32 25 21 20
3 3 2 17 19 8 19 11 15 14 24 36 31 26 35 46 36 42 46 50 48 32 26 10 28 13 11 9 38 37 36 16 19 24 24 22 26 26 26 29 26 22 14 19
5 4 7 16 24 46 43 1 19 29 24 24 22 7 10 31 40 50 28 36 43 14 33 32 36 27 40 38 24 29 39 7 21 19 21 25 26 28 31 27 24 16 22 26
10 9 3 5 23 40 2 9 20 24 18 21 8 18 32 40 40 38 39 40 36 50 23 15 8 4 14 8 6 23 23 5 8 19 28 30 25 24 24 21 18 20 28 18
5 12 7 7 15 7 12 18 20 12 11 17 20 24 31 36 38 41 40 34 36 37 19 16 10 3 4 7 10 19 14 10 19 24 29 33 26 29 28 20 19 17 19 28
9 11 19 26 18 30 24 22 7 5 11 13 20 29 34 37 35 32 36 31 29 25 29 8 2 3 8 8 13 19 10 12 22 22 34 31 29 33 25 19 23 28 27 30
11 14 15 32 18 31 17 9 4 12 12 16 23 32 34 30 29 31 34 37 36 34 4 27 21 20 19 16 20 17 22 34 25 29 34 35 29 32 31 31 31 36 32 42
9 38 16 31 27 19 11 8 13 10 16 15 15 23 30 29 32 36 41 30 20 15 20 15 21 23 7 13 19 23 32 31 28 30 34 28 32 37 34 31 36 42 45 47
8 35 15 12 6 2 11 10 5 10 16 11 17 19 22 25 30 32 24 20 25 29 29 30 30 19 15 24 31 33 33 39 39 39 32 30 37 42 39 43 43 47 50 52
15 19 10 8 14 15 22 11 10 16 13 19 20 18 19 20 21 25 29 33 35 29 31 31 33 26 28 30 31 38 44 46 40 33 28 33 35 42 47 47 52 53 57 57
15 14 8 5 12 18 6 13 19 19 20 17 12 14 13 16 23 22 26 34 26 23 29 31 29 24 25 33 39 46 41 33 29 25 30 35 39 45 43 50 57 64 65 61
6 6 11 11 7 8 21 17 16 15 12 13 14 13 18 27 18 21 28 25 32 31 39 24 22 22 32 40 43 34 35 34 31 30 35 40 42 35 32 39 47 42 38 66
13 13 13 25 27 21 23 20 16 11 6 7 6 16 23 18 22 27 24 27 34 36 36 25 22 29 37 34 37 42 44 40 35 35 42 50 47 51 47 43 44 49 61 65
18 18 29 28 33 31 24 21 15 8 4 6 10 14 16 15 18 21 23 22 29 32 32 33 32 28 24 30 32 38 46 49 46 44 46 52 45 35 47 61 71 72 69 71
34 24 18 21 33 34 29 23 15 7 1 3 8 13 17 21 25 33 33 37 31 32 30 28 27 31 29 35 39 38 39 44 46 47 52 52 57 62 63 66 70 71 74 54
45 33 30 37 37 35 29 23 14 5 4 5 7 13 16 19 24 24 25 31 28 27 28 27 28 32 35 33 33 40 46 50 52 57 56 51 53 52 57 59 64 64 49 61
33 36 37 43 41 36 30 22 15 9 2 4 6 10 16 22 27 26 24 18 19 21 23 30 29 32 28 33 40 45 43 42 46 50 47 42 52 55 56 51 52 53 56 54
38 37 51 50 45 40 26 19 16 10 4 2 5 9 20 19 24 27 22 22 28 25 23 26 29 35 38 39 37 35 32 45 52 46 43 41 44 44 46 48 51 51 47 47
38 36 38 51 52 23 21 16 14 9 5 2 4 9 14 21 28 25 25 27 30 25 23 26 29 30 28 28 34 33 38 44 43 43 45 47 41 43 44 47 52 45 42 42
62 54 43 15 13 42 26 17 11 10 4 4 4 12 13 16 21 28 28 22 23 22 26 26 30 34 45 33 28 33 47 33 32 32 33 31 32 44 53 51 49 46 44 42
37 10 21 42 37 27 26 15 6 13 16 5 7 4 6 18 29 23 20 21 24 27 36 19 29 41 30 30 35 45 28 29 20 28 33 40 53 62 60 53 48 45 42 38
33 46 53 44 34 27 12 8 4 7 5 8 7 9 13 29 32 14 21 29 27 31 31 27 45 47 21 44 26 20 26 23 26 34 42 57 60 55 47 43 40 38 49 47
62 51 43 34 25 26 20 24 7 9 9 4 17 23 26 36 23 18 17 16 18 25 26 32 32 34 37 26 23 24 29 24 31 43 54 61 55 46 37 37 33 48 48 39
46 38 34 27 23 18 13 12 10 5 11 20 24 23 23 19 19 25 25 28 30 34 39 41 39 39 32 21 18 18 29 32 40 43 60 60 52 40 29 31 37 45 40 39
Wind_Direction_850mb
325 38 44 23 337 47 34 345 90 186 85 66 65 75 30 17 31 103 23 348 271 230 208 213 214 224 225 222 258 241 271 247 234 226 308 294 280 256 298 284 290 287 279 286
323 7 34 57 35 25 61 324 39 73 59 68 48 50 53 41 32 24 12 2 1 359 272 233 207 219 219 221 217 239 238 250 262 265 261 239 241 276 282 282 285 281 277 281
277 26 336 17 246 313 304 352 53 70 69 46 34 24 49 33 17 4 358 1 355 349 339 236 221 225 216 223 227 239 239 244 260 232 260 269 241 277 282 282 294 297 278 267
258 53 319 298 310 39 10 330 49 47 38 46 31 25 46 24 5 7 4 348 337 344 334 243 218 261 251 216 247 269 227 277 155 239 286 275 277 280 282 295 302 304 287 272
188 82 270 352 327 8 22 355 31 47 40 35 9 358 356 1 359 352 338 342 347 341 69 67 317 216 315 324 333 323 228 237 256 297 268 272 278 282 290 299 296 305 298 290
317 254 194 216 231 235 197 293 357 66 48 21 20 30 284 -0 352 345 353 350 353 5 310 332 257 258 284 317 329 60 54 60 296 285 317 309 292 291 299 299 290 278 276 293
235 214 103 141 299 299 126 215 79 64 49 15 12 354 360 355 350 347 338 355 349 352 339 309 223 307 298 201 234 341 284 16 306 336 331 322 296 300 313 299 285 286 288 297
28 48 274 251 29 98 162 103 85 55 54 10 1 349 351 342 343 353 356 5 4 348 21 53 76 283 194 182 29 32 10 260 297 323 324 319 297 312 322 300 284 315 303 308
143 207 218 208 161 140 139 117 98 123 62 11 9 356 347 350 359 2 2 17 39 59 1 311 331 310 305 16 18 329 289 309 342 334 313 306 304 308 312 320 307 303 298 307
53 13 205 203 204 128 125 113 124 93 62 15 12 9 2 9 11 9 7 4 356 1 321 311 315 332 354 7 342 360 357 332 323 310 308 316 311 318 309 293 287 293 286 286
22 324 37 99 112 119 110 50 103 76 19 351 3 13 8 3 357 354 352 356 12 348 326 313 332 338 326 323 327 322 320 316 316 309 310 317 319 311 306 312 298 293 298 296
196 209 122 107 91 161 156 119 55 40 16 60 17 12 4 8 358 353 345 351 341 335 335 333 326 323 318 322 320 320 324 322 318 313 307 315 317 316 307 304 301 300 300 297
152 148 150 242 259 260 144 96 103 55 75 36 16 14 348 347 352 347 334 338 342 341 334 331 329 319 318 321 332 327 319 317 315 316 325 311 310 309 308 306 308 306 305 299
168 165 139 8 129 113 89 127 107 78 38 21 24 16 354 352 347 335 324 335 338 330 319 313 314 318 324 325 317 314 314 315 325 327 326 320 317 307 307 308 312 311 310 305
251 287 253 182 220 278 150 141 106 68 46 40 9 351 334 340 343 314 313 325 341 338 340 331 330 321 305 309 315 324 328 323 326 321 313 308 311 321 316 318 313 317 312 312
303 276 230 209 219 180 159 131 112 86 5 18 3 341 340 335 312 317 306 311 334 332 331 314 292 286 302 308 325 328 327 320 313 308 308 309 307 310 302 301 306 310 310 315
258 242 277 292 242 162 142 126 117 137 161 351 348 350 357 3 345 4 7 351 333 329 322 301 317 319 323 333 311 306 307 314 314 308 306 314 320 307 308 314 316 315 312 318
233 221 236 203 146 136 133 134 141 161 97 258 320 326 335 340 342 336 339 340 321 320 322 310 315 317 312 321 325 325 324 321 316 309 309 302 308 308 306 319 324 321 316 319
221 219 227 188 166 152 148 147 147 135 203 313 344 347 343 337 335 337 320 351 349 353 355 338 328 327 326 327 329 326 323 322 324 318 315 311 316 318 325 328 331 326 320 321
215 218 219 177 160 161 154 157 147 171 198 337 333 343 343 334 326 336 332 331 346 334 334 348 350 344 333 324 331 331 335 331 324 326 332 339 331 333 335 336 344 333 326 329
209 229 186 177 161 138 151 151 156 180 181 256 348 6 349 351 349 347 357 334 358 353 339 350 329 325 334 333 339 343 343 340 348 351 12 352 349 346 344 350 349 343 332 332
214 169 142 140 125 124 131 150 165 157 167 246 269 321 12 23 356 341 347 337 346 344 343 348 340 340 342 343 334 341 336 339 355 355 356 351 344 348 354 349 345 342 337 340
154 160 144 242 166 174 158 157 158 182 219 40 291 284 332 2 4 350 351 1 13 16 8 340 329 342 344 335 332 332 340 351 358 9 13 360 352 348 348 350 348 350 351 348
124 114 173 174 188 161 162 155 179 228 259 308 44 120 24 13 355 336 325 341 351 351 348 352 344 346 344 347 341 331 349 353 8 360 352 345 348 346 346 349 351 355 2 6
179 169 171 159 156 164 166 163 82 331 58 97 4 336 4 5 350 324 333 335 335 337 337 342 345 339 313 338 341 357 327 333 339 344 349 348 350 350 354 354 359 7 359 355
154 150 147 146 121 143 128 133 118 7 326 352 336 326 330 338 340 350 0 351 342 342 337 337 339 335 338 332 343 326 311 316 338 343 347 348 345 345 355 352 341 344 346 343
126 137 123 112 133 131 114 63 39 32 355 338 312 306 341 332 338 350 356 352 344 333 323 331 322 312 308 304 334 324 318 326 329 340 351 346 338 337 344 333 330 330 333 330